Location: Kitchener
(43.4500°N, 80.5000°W)
Time: 03:27:31
(UTC-05:00)

Daily predictions for brighter satellites

Satellite Brightness Start Highest point End
(mag) Time Altitude Azimuth Time Altitude Azimuth Time Altitude Azimuth
Cosmos 2181 Rocket 4.4 04:27:00 60° ESE 04:27:00 60° ESE 04:32:27 10° SSE
Cosmos 2297 4.5 04:42:46 43° SSE 04:42:46 43° SSE 04:46:29 10° SSE
Cosmos 2333 Rocket 4.2 04:45:24 17° N 04:45:24 17° N 04:46:43 10° NNE
Meteor 1-14 Rocket 4.5 04:52:15 60° NNE 04:52:15 60° NNE 04:56:48 10° NNE
USA 215 3.6 04:47:16 10° NE 04:53:43 60° SE 04:56:46 32° SSW
Tiangong 2 3.8 05:06:52 19° E 05:06:52 19° E 05:07:58 10° E
SL-16 R/B 2.0 05:05:26 79° NNW 05:05:26 79° NNW 05:10:55 10° NNE
Cosmos 1680 Rocket 3.4 05:06:00 82° NNE 05:06:00 82° NNE 05:11:01 10° NNE
Okean 1 4.3 05:06:20 46° ENE 05:06:22 46° ENE 05:10:15 10° SSE
Cosmos 921 Rocket 3.4 05:08:05 63° ENE 05:08:07 63° ENE 05:12:35 10° SSE
Meteor 1-25 Rocket 4.3 05:05:04 10° S 05:10:53 78° E 05:16:43 10° NNE
CENTAUR R/B 2.6 05:12:47 56° NW 05:12:56 56° NW 05:19:49 10° NNE
Cosmos 1812 4.3 05:17:05 26° S 05:17:05 26° S 05:18:52 10° S
COSMO-SKYMED 1 3.3 05:11:00 10° SSE 05:15:11 51° ENE 05:17:08 29° NNE
Cosmos 1238 Rocket 3.3 05:17:54 67° NNW 05:18:35 83° W 05:24:14 10° S
Cosmos 1346 Rocket 3.1 05:23:01 56° NE 05:23:32 62° ENE 05:27:24 10° SSE
Cosmos 2112 Rocket 3.8 05:23:28 46° SW 05:24:58 74° WNW 05:30:12 10° NNE
NOAA 6 4.0 05:21:41 10° NNE 05:26:50 80° ESE 05:31:57 10° S
Cosmos 2327 Rocket 4.4 05:23:23 10° S 05:29:47 88° W 05:36:08 10° N
Cosmos 1633 4.3 05:29:16 10° SSE 05:32:34 33° E 05:35:52 10° NNE
Cosmos 2237 Rocket 3.8 05:38:25 19° NNW 05:38:25 19° NNW 05:40:38 10° N
PSLV R/B 3.9 05:38:42 48° S 05:38:42 48° S 05:41:45 10° ESE
Cosmos 2074 Rocket 3.9 05:32:34 10° SSW 05:38:50 72° W 05:45:07 10° N
Cosmos 1300 Rocket 4.0 05:34:36 10° S 05:38:59 63° E 05:43:21 10° NNE
CZ-4 R/B 4.3 05:37:16 10° NE 05:40:03 18° E 05:42:47 10° SE
Meteor 1-28 Rocket 4.1 05:37:05 10° SSE 05:40:44 48° ENE 05:44:05 12° N
Lacrosse 5 3.1 05:36:48 10° SSW 05:41:34 41° SE 05:46:20 10° ENE
SKYMED 3 4.4 05:40:52 10° S 05:45:11 76° WSW 05:47:31 27° NNW
ADEOS II 4.0 05:44:38 10° N 05:45:35 14° NNW 05:45:35 14° NNW
USA 129 4.1 05:47:53 10° SE 05:49:35 22° ENE 05:49:37 22° ENE
Lacrosse 4 Rocket 4.1 05:48:26 10° NNE 05:49:56 12° NE 05:51:25 10° ENE
Cosmos 1536 4.1 05:48:55 10° SSE 05:52:40 41° E 05:56:28 10° NNE
CSL-04 Rocket 4.2 05:47:29 10° NNE 05:53:00 62° ESE 05:58:26 10° S
Cosmos 44 Rocket 4.2 05:48:36 10° SSW 05:53:39 55° ESE 05:58:39 10° NE
Cosmos 2184 Rocket 4.0 05:47:39 10° SSW 05:53:42 58° W 05:59:49 10° N
SL-08 ROCKET BODY 4.4 05:48:28 10° SSW 05:54:16 53° WNW 06:00:03 10° N
CSL-04 DEB 4.3 05:57:57 10° NNE 06:02:00 87° WNW 06:06:08 10° SSW
Cosmos 1603 3.6 05:57:07 10° SSW 06:02:48 74° WNW 06:08:29 10° NNE
SKYMED 2 3.8 05:59:06 10° S 06:03:16 47° W 06:05:45 22° NW
Cosmos 2369 Rocket 2.6 05:57:47 10° NNW 06:03:30 65° ENE 06:09:09 10° SE
Meteor 2-13 Rocket 4.5 05:58:38 10° S 06:04:47 87° E 06:10:59 10° N
Cosmos 292 Rocket 4.5 06:04:40 29° W 06:05:30 31° WNW 06:09:48 10° N
Cosmos 2056 Rocket 3.4 06:02:29 18° NNW 06:06:17 62° WSW 06:11:19 10° S
Cosmos 2151 Rocket 4.3 06:02:56 10° SW 06:06:56 30° WNW 06:10:54 10° NNW
SL-24 DEB 4.3 06:04:01 10° S 06:08:48 85° E 06:13:37 10° N
Cosmos 2154 Rocket 3.9 06:02:53 10° S 06:09:06 83° W 06:15:21 10° N
Lacrosse 5 rocket 3.4 06:15:07 13° NNW 06:16:09 14° N 06:18:26 10° NNE
Helios 1B rocket 3.7 06:12:16 10° SE 06:16:09 41° ENE 06:20:04 10° N
Cosmos 1624 Rocket 4.4 06:16:13 16° NW 06:20:09 44° WSW 06:25:08 10° S
SOZ 4.1 06:21:52 41° WNW 06:22:13 47° NNW 06:24:07 10° NE
Ariane Rocket 3.0 06:17:57 10° N 06:22:55 58° WNW 06:27:52 10° SSW
IDEFIX/ARIANE 42P 3.6 06:21:37 10° NNE 06:26:39 49° E 06:31:40 10° S
Cosmos 1943 3.3 06:23:23 10° SSW 06:29:00 84° ESE 06:34:41 10° NNE
Meteor 1-29 4.4 06:26:01 10° SE 06:29:09 37° ENE 06:32:19 10° N
YAOGAN 1 3.6 06:29:07 10° NNE 06:33:22 50° E 06:37:34 10° S
USA 215 3.5 06:30:24 10° NE 06:36:38 49° NNW 06:42:51 10° W
Cosmos 1025 Rocket 3.0 06:35:16 10° NNW 06:39:37 63° W 06:43:55 10° S
Tiangong 2 1.1 06:38:56 16° W 06:41:22 78° S 06:44:31 10° E
SL-8 Rocket 4.1 06:38:18 10° S 06:44:35 87° E 06:50:51 10° N
Okean 1 Rocket 3.8 06:42:45 10° SW 06:46:39 30° WNW 06:50:34 10° NNW
Meteor 2-8 Rocket 4.5 06:42:53 10° N 06:49:04 81° W 06:55:13 10° S
Abrixas rocket 2.4 06:45:55 10° WSW 06:49:16 74° SSE 06:52:38 10° ENE
SL-16 R/B 3.7 06:47:25 11° WNW 06:50:17 16° NW 06:53:35 10° N
Meteor 1-11 Rocket 4.1 06:45:36 10° SW 06:51:07 42° WNW 06:56:34 10° N
Cosmos 1544 Rocket 3.7 06:47:10 10° S 06:51:29 80° E 06:55:54 10° N
COSMO-SKYMED 1 4.2 06:49:06 10° SW 06:51:39 15° W 06:54:12 10° NW
Cosmos 1943 Rocket 2.4 06:47:53 10° NNW 06:53:25 75° ENE 06:58:55 10° SSE
CZ-3 R/B 3.6 06:52:03 10° SSW 06:53:51 11° SSW 06:55:15 10° S
Cosmos 2366 rocket 4.3 06:49:07 10° S 06:55:22 78° E 07:01:44 10° N
Cosmos 1452 Rocket 3.7 06:50:37 10° NNW 06:55:45 54° WSW 07:00:53 10° S
Okean 2 3.4 06:54:11 10° NNW 06:58:19 62° W 07:02:25 10° S
Cosmos 2218 Rocket 4.1 06:53:00 10° S 06:59:23 87° W 07:05:51 10° N
Cosmos 1959 Rocket 4.5 06:53:45 10° S 06:59:52 86° W 07:06:01 10° N
SMAP 3.0 06:55:35 10° N 07:00:16 79° WNW 07:04:54 10° SSW
CZ-2C R/B 2.5 06:55:27 10° N 07:00:39 78° WNW 07:05:44 10° SSW
Cosmos 44 3.5 06:56:01 10° SW 07:01:21 72° NW 07:06:33 10° NNE
CENTAUR R/B 4.0 07:00:34 10° WNW 07:05:19 20° NNW 07:10:28 10° NNE
Cosmos 2263 4.4 07:00:52 10° NNW 07:06:22 57° WSW 07:11:49 10° S
Cosmos 1633 4.2 07:05:28 10° WSW 07:07:42 15° WNW 07:09:57 10° NNW
Cosmos 839 Rocket 4.1 07:04:17 10° NNW 07:11:01 88° NE 07:17:09 10° SSE
CZ-4C R/B 4.5 07:07:32 10° NNW 07:12:20 20° NNE 07:17:31 10° ENE
